Flag Weather past 2 weeks in Akron, Ohio, U.S.A.

Now
22 °F

Partly sunny.


Feels Like: 12 °F
Forecast: 17 / 26 °F
Wind: 9 mph from Southwest

Location: Akron Fulton International Airport

Current Time: Nov 21, 2014 at 11:39:09 AM

Latest Report: Nov 21, 2014 at 10:54 AM


Visibility: 10 mi

Pressure: 30.50 "Hg

Humidity: 66%

Dew point: 12 °F

Location of AkronLocation

Historic Weather in Akron — Graph

°F

Akron temperature yesterday

Maximum temperature yesterday: 29 °F (at 12:54 AM)
Minimum temperature yesterday: 19 °F (at 11:54 PM)
Average temperature yesterday: 25 °F

Past Weeks' High & Low Weather Summary

 TemperatureHumidityPressure
High68 °F (Nov 11, 2:54 PM)92% (Nov 17, 1:54 AM)30.47 "Hg (Nov 17, 1:54 AM)
Low11 °F (Nov 18, 7:54 AM)31% (Nov 10, 1:54 PM)29.63 "Hg (Nov 17, 12:59 PM)
Average35 °F66%30.03 "Hg
* Reported Nov 6 9:54 AM — Nov 21 9:54 AM, Akron, Weather by CustomWeather, © 2014

Note: Actual official high and low records may vary slightly from our data, if they occured in-between our weather recording intervals... More about our weather records

Advertising

Akron weather history for previous 24 hours

 ConditionsComfort  
Time TempWeatherWind HumidityBarometerVisibility
9:54 AM
Nov 21
21 °FPartly sunny.7 mph65%30.47 "Hg10 mi
8:54 AM19 °FPartly sunny.9 mph71%30.46 "Hg7 mi
7:54 AM19 °FOvercast.9 mph74%30.42 "Hg9 mi
6:54 AM15 °FPassing clouds.8 mph80%30.39 "Hg8 mi
5:54 AM15 °FMostly cloudy.5 mph80%30.35 "Hg10 mi
4:54 AM14 °FClear.8 mph77%30.32 "Hg10 mi
3:54 AM16 °FPassing clouds.10 mph77%30.28 "Hg10 mi
2:54 AM15 °FPassing clouds.9 mph77%30.26 "Hg10 mi
1:54 AM17 °FClear.8 mph76%30.23 "Hg10 mi
12:54 AM18 °FClear.9 mph74%30.21 "Hg10 mi
11:54 PM
Nov 20
19 °FClear.9 mph74%30.18 "Hg10 mi
10:54 PM20 °FPassing clouds.9 mph78%30.16 "Hg10 mi
10:03 PM23 °FLight snow. Mostly cloudy.10 mph81%30.11 "Hg1 mi
9:54 PM24 °FLight snow. Mostly cloudy.18 mph75%30.15 "Hg1 mi
8:54 PM24 °FMostly cloudy.18 mph62%30.13 "Hg10 mi
7:54 PM25 °FMostly cloudy.16 mph58%30.11 "Hg10 mi
6:54 PM25 °FOvercast.20 mph58%30.10 "Hg10 mi
5:54 PM26 °FOvercast.17 mph52%30.08 "Hg10 mi
4:54 PM26 °FMostly cloudy.17 mph55%30.05 "Hg9 mi
3:54 PM26 °FMostly cloudy.18 mph55%30.03 "Hg10 mi
2:54 PM26 °FOvercast.20 mph55%30.02 "Hg10 mi
1:54 PM26 °FOvercast.18 mph52%30.01 "Hg10 mi
12:54 PM26 °FOvercast.17 mph50%30.01 "Hg10 mi
11:54 AM26 °FMostly cloudy.17 mph55%30.03 "Hg10 mi
Weather by CustomWeather, © 2014

See weather overviewHow to use our weather pages